AirNav   Air Wisconsin pilot careers
 
 1338 users online  

2E2 Sharpe's Strip Airport
Emmett, Michigan, USA

GOING TO EMMETT?


FAA INFORMATION EFFECTIVE 06 DECEMBER 2018

Location

FAA Identifier: 2E2
Lat/Long: 42-57-05.8000N / 082-46-33.3000W
42-57.096667N / 082-46.555000W
42.9516111 / -82.7759167
(estimated)
Elevation: 781 ft. / 238 m (estimated)
From city: 2 miles S of EMMETT, MI
Time zone: UTC -5 (UTC -4 during Daylight Saving Time)
Zip code: 48041

Airport Operations

Airport use: Open to the public
Activation date: 11/2003
Control tower: no
ARTCC: CLEVELAND CENTER
FSS: LANSING FLIGHT SERVICE STATION
NOTAMs facility: LAN (NOTAM-D service available)
Attendance: IREG
Wind indicator: yes
Segmented circle: no

Airport Communications

CTAF: 122.9
WX AWOS-3 at PHN (11 nm E): 118.375 (810-364-7787)

Nearby radio navigation aids

NDB name  Hdg/Dist  Freq  Var  ID
PHURN317/10.233207WPH .--. ....

Airport Services

Runway Information

Runway 18/36

Dimensions: 2700 x 90 ft. / 823 x 27 m
Surface: turf, in good condition
Runway edge markings: RY 36 & DSPLCD THLD MKD WITH YELLOW CONES.
RUNWAY 18  RUNWAY 36
Latitude: 42-57.319333N42-56.875000N
Longitude: 082-46.566167W082-46.544500W
Traffic pattern: leftleft
Displaced threshold: 700 ft.no
Obstructions: 33 ft. pline, marked, 75 ft. from runway, 2:1 slope to clear
APCH RATIO 0:1 TO DSPLCD THLD, +25' TREES 0 FT DSTC, 96' RIGHT.
25 ft. trees, 60 ft. left of centerline

Airport Ownership and Management from official FAA records

Ownership: Privately-owned
Owner: VERNON SHARPE
11371 HILL ROAD
RILEY, MI 48041
Phone 810-384-6668
Manager: VERNON SHARPE
11371 HILL ROAD
RILEY, MI 48041
Phone 810-384-6668

Airport Operational Statistics

Aircraft based on the field: 1
Single engine airplanes: 1
    
Aircraft operations: 100/year *
50% transient general aviation
50% local general aviation
* for 12-month period ending 31 December 2014

Additional Remarks

DEER & TURKEYS INVOF ARPT.
FOR IFR CLEARANCE CTC CLEVELAND ARTCC (ZOB) 126.52/285.52 OR CALL ZOB 440-774-0224.

Instrument Procedures

There are no published instrument procedures at 2E2.

Some nearby airports with instrument procedures:

KPHN - St Clair County International Airport (11 nm E)
D98 - Romeo State Airport (13 nm SW)
57D - Ray Community Airport (14 nm S)
KMTC - Selfridge Air National Guard Base (20 nm S)
D95 - Dupont-Lapeer Airport (23 nm W)
 
Loc | Ops | Rwys | IFR | FBO | Links
Com | Nav | Svcs | Stats | Notes


 
Area around 2E2 (Sharpe's Strip Airport)
 
Road maps at: MapQuest Bing Google
 
Aerial photo
WARNING: Photo may not be current or correct
Aerial photo of 2E2 (Sharpe's Strip Airport)
Photo by Vic Adamko
Taken in the Summer of 2004

Do you have a better or more recent aerial photo of Sharpe's Strip Airport that you would like to share? If so, please send us your photo.

 
Sectional chart

 
Airport distance calculator
Flying to Sharpe's Strip Airport? Find the distance to fly.

From to 2E2

Sunrise and sunset
Times for 18-Dec-2018
 Local
(UTC-5)
 Zulu
(UTC)
Morning civil twilight07:2612:26
Sunrise07:5812:58
Sunset16:5721:57
Evening civil twilight17:3022:30

Current date and time
Zulu (UTC)  18-Dec-2018 14:57:16
Local (UTC-5)  18-Dec-2018 09:57:16
 
METAR
KPHN 
12nm E 
181455Z AUTO 29004KT 10SM OVC029 M01/M06 A3027 RMK AO2
KMTC 
20nm S 
181356Z 29007KT 10SM SCT031 M03/M06 A3025 RMK AO2A SLP256 T10271058 $
CYZR 
21nm E 
181400Z AUTO 29010KT 9SM OVC027 M01/M06 A3024 RMK SLP250
KD95 
23nm W 
181455Z AUTO 20004KT 10SM OVC020 M02/M07 A3028 RMK AO2 T10201074
TAF
KMTC 
20nm S 
180900Z 1809/1915 34009KT 9999 BKN025 620251 QNH3015INS BECMG 1813/1814 33006KT 9999 SCT030 QNH3020INS BECMG 1817/1818 20009KT 9999 FEW120 QNH2995INS TX03/1819Z TNM04/1811Z LAST NO AMDS AFT 1809 NEXT 1812
CYZR 
21nm E 
181342Z 1814/1902 34010G20KT P6SM OVC025 TEMPO 1814/1816 OVC020 FM181600 32008KT P6SM SCT025 RMK FCST BASED ON AUTO OBS. NXT FCST BY 182000Z
NOTAMs
Click for the latest NOTAMs
NOTAMs are issued by the DoD/FAA and will open in a separate window not controlled by AirNav.

 

 
 

Would you like to see your business listed on this page?

 If your business provides an interesting product or service to pilots, flight crews, aircraft, or users of the Sharpe's Strip Airport, you should consider listing it here.  To start the listing process, click on the button below
 
Add a business
 

Other Pages about Sharpe's Strip Airport

Page from the Michigan Airport Directory (PDF)
 
Update a link
 
Copyright © AirNav, LLC. All rights reserved. Privacy Policy  Contact